Masthead Graphic

Historical weather data from Belfast International Airport

The table below shows the weather reports for the last 24 hours taken from the METAR weather bulletins issued by Belfast International Airport. Readings should be at 30 min intervals however they are not always available

Date Time Pressure mb Temp. Wind Kts Wind Dir. Gusts Kts Conditions
05/05/2026 21:50:00 1017 5 5 40 clear skies
05/05/2026 21:20:00 1017 5 3 70 clear skies
05/05/2026 20:50:00 1017 6 4 20 clear skies
05/05/2026 20:20:00 1017 7 6 340 clear skies
05/05/2026 19:50:00 1017 8 7 350 clear skies
05/05/2026 19:20:00 1016 9 9 350 clear skies
05/05/2026 18:50:00 1016 9 9 350 clear skies
05/05/2026 17:50:00 1016 11 11 350 partly cloudy
05/05/2026 17:20:00 1016 12 12 330 partly cloudy
05/05/2026 16:50:00 1016 12 10 340 mostly cloudy
05/05/2026 16:20:00 1016 12 10 340 scattered clouds
05/05/2026 15:20:00 1016 12 8 340 clear skies
05/05/2026 14:50:00 1016 12 11 350 overcast
05/05/2026 14:20:00 1016 12 9 330 clear skies
05/05/2026 13:50:00 1016 12 9 350 20 mostly cloudy
05/05/2026 13:20:00 1016 13 14 360 scattered clouds
05/05/2026 12:50:00 1016 12 8 350 mostly cloudy
05/05/2026 12:20:00 1016 12 8 360 mostly cloudy
05/05/2026 11:50:00 1016 11 9 350 overcast
05/05/2026 11:20:00 1017 11 9 360 mostly cloudy
05/05/2026 10:50:00 1017 11 10 360 mostly cloudy
05/05/2026 10:20:00 1017 11 9 340 mostly cloudy
05/05/2026 09:50:00 1017 11 10 20 overcast
05/05/2026 09:20:00 1017 10 8 10 overcast
First Previous